ANGOSAT 2

Last updated on Thu Oct 30 2025 00:02:52 GMT+0000 (Coordinated Universal Time)

1 54033U 22131A 25302.54699811 .00000145 00000+0 00000+0 0 9997 2 54033 0.0170 225.3744 0000983 45.4099 347.2859 1.00270331 11167
UTC large
Height (km)
Speed (km/s)
/
Latitude / Longitude
Inclination (degrees)
Orbital Period (minutes)
Azimuth
Elevation
Range (km)
Doppler Factor

Next 0 passes for location: London (51.5072 / 0.1276)

Sorry there are no passes over London.